This is the latest recevied weather packets stored in our database for station/object KE2HEH. If no packets are shown the sender has not sent any weather packets the latest 10 day(s).
| Time | Temp. | Humidity | Pressure | Rain* | Wind** | Luminosity | Snow |
|---|---|---|---|---|---|---|---|
| 1777549284 | 8.89° C | 97% | 1008.9 hPa | 0 mm | - | 39 W/m² | - |
| 1777548981 | 8.89° C | 97% | 1009.1 hPa | 0 mm | - | 33 W/m² | - |
| 1777548678 | 8.89° C | 97% | 1009.1 hPa | 0 mm | - | 22 W/m² | - |
| 1777548375 | 8.89° C | 97% | 1009.1 hPa | 0 mm | - | 15 W/m² | - |
| 1777548073 | 8.89° C | 97% | 1009.1 hPa | 0 mm | - | 18 W/m² | - |
| 1777547768 | 8.89° C | 97% | 1009.2 hPa | 0 mm | - | 17 W/m² | - |
| 1777547464 | 8.89° C | 97% | 1009.1 hPa | 0 mm | - | 20 W/m² | - |
| 1777547162 | 8.89° C | 97% | 1009.1 hPa | 0 mm | - | 27 W/m² | - |
| 1777546859 | 8.89° C | 97% | 1008.9 hPa | 0 mm | - | 20 W/m² | - |
| 1777546555 | 8.89° C | 97% | 1008.9 hPa | 0 mm | - | 22 W/m² | - |
| 1777546252 | 8.89° C | 97% | 1008.8 hPa | 0 mm | - | 16 W/m² | - |
| 1777545949 | 8.89° C | 97% | 1008.7 hPa | 0 mm | - | 15 W/m² | - |
| 1777545646 | 8.89° C | 97% | 1008.6 hPa | 1.78 mm | - | 14 W/m² | - |
| 1777545343 | 8.89° C | 97% | 1008.7 hPa | 1.78 mm | - | 11 W/m² | - |
| 1777545040 | 8.33° C | 97% | 1008.8 hPa | 0 mm | - | 6 W/m² | - |
| 1777544737 | 8.33° C | 97% | 1008.9 hPa | 0 mm | - | 2 W/m² | - |
| 1777544432 | 8.33° C | 97% | 1008.8 hPa | 0 mm | - | 2 W/m² | - |
| 1777544128 | 8.33° C | 97% | 1008.8 hPa | 0 mm | - | 1 W/m² | - |
| 1777543827 | 8.89° C | 97% | 1008.7 hPa | 0 mm | - | 0 W/m² | - |
| 1777543522 | 8.89° C | 97% | 1008.7 hPa | 0 mm | - | 0 W/m² | - |
| 1777543219 | 8.89° C | 97% | 1008.5 hPa | 0 mm | - | 0 W/m² | - |
| 1777542915 | 8.89° C | 97% | 1008.7 hPa | 0 mm | - | 0 W/m² | - |
| 1777542611 | 8.89° C | 97% | 1008.6 hPa | 0 mm | - | 0 W/m² | - |
| 1777542307 | 8.89° C | 97% | 1008.5 hPa | 1.27 mm | - | 0 W/m² | - |
| 1777542005 | 8.89° C | 97% | 1008.5 hPa | 1.27 mm | - | 0 W/m² | - |
* Rain latest hour (hover to see other rain measurements)
** Current wind speed in m/s (hover to see current wind gust speed)